Location: G�kdere
(37.0328°N, 30.9000°E)
Time: 03:16:53
(UTC+00:00)

Cosmos 2333 Rocket - Pass Details

Date: 03 March 2021
Orbit: 837 x 864 km, 70.8° (Epoch: 22 April)

Event Time Altitude Azimuth Distance (km) Brightness Sun altitude
Rises 17:01:57 0° 182° (S) 3,378 5.3 -14.6°
Reaches altitude 10° 17:04:29 10° 176° (S) 2,450 4.5 -15.1°
Maximum altitude 17:09:46 44° 106° (ESE) 1,162 2.5 -16.2°
Drops below altitude 10° 17:15:08 10° 36° (NE) 2,481 4.3 -17.3°
Sets 17:17:41 0° 30° (NNE) 3,425 5.1 -17.8°
